CAPE
0 0 0 0 0 0 0 0 0 0 0 0 0 0 0 0 0 0 0 0 0 0 0 0 0 0 0 0 0 0 3 0 0 0 0 0 0 4 9 10 116 178 157 7 37
0 0 0 0 0 0 0 0 0 0 0 0 0 0 0 0 0 0 0 0 0 0 0 0 0 0 0 0 0 1 3 0 0 0 0 0 0 0 1 0 10 174 114 0 15
0 0 0 0 0 0 0 0 0 0 0 0 0 0 0 0 0 0 0 0 0 0 0 0 0 0 0 0 0 0 1 0 0 0 7 14 6 2 9 0 0 25 183 12 0
0 0 0 0 0 0 0 0 0 0 0 0 0 0 0 0 0 0 0 0 0 0 0 0 0 0 0 0 0 0 0 0 0 0 0 1 9 3 2 0 0 7 92 17 11
0 0 0 0 0 0 0 0 0 0 0 0 0 0 0 0 0 0 0 0 0 0 0 0 0 0 0 0 0 0 0 0 0 4 0 0 1 6 0 0 0 0 0 31 76
0 0 0 0 0 0 0 0 0 0 0 0 0 0 0 0 0 0 0 0 0 0 0 0 0 0 0 0 0 0 0 0 0 0 4 0 0 0 0 0 0 0 0 21 68
0 0 0 0 0 0 0 0 0 0 0 0 0 0 0 0 0 0 0 0 0 0 0 0 0 0 0 0 0 0 0 0 0 0 0 0 0 0 0 0 0 0 0 0 49
0 0 0 0 0 0 0 0 0 0 0 0 0 0 0 0 0 0 0 0 0 0 0 0 0 0 0 0 0 0 0 0 0 0 0 0 0 0 0 0 0 0 0 0 0
0 0 0 0 0 0 0 0 0 0 0 0 0 0 0 0 0 0 0 0 0 0 0 0 0 0 0 0 0 0 0 0 0 0 0 0 0 0 0 0 0 1 0 0 0
0 0 0 0 0 0 0 0 0 0 0 0 0 0 0 0 0 0 0 0 0 0 0 0 0 0 0 0 0 0 0 0 0 0 0 0 0 0 0 0 0 0 2 4 0
0 0 0 0 0 0 0 0 0 0 0 0 0 0 0 0 0 0 0 0 0 0 0 0 0 0 0 0 0 0 0 0 0 0 0 0 0 0 0 0 0 0 0 8 10
0 0 0 0 0 0 0 0 0 0 0 0 0 0 0 0 0 0 0 0 0 0 0 0 0 0 0 0 0 0 0 0 0 0 0 0 0 0 0 0 0 0 0 0 3
0 0 0 0 0 0 0 0 0 0 0 0 0 0 0 0 0 0 0 0 0 0 0 0 0 0 0 0 0 0 0 0 0 0 0 0 0 0 0 0 0 0 0 0 0
0 0 0 0 0 0 0 0 0 0 0 0 0 0 0 0 0 0 0 0 0 0 0 0 0 0 0 0 4 0 0 0 0 0 0 0 0 0 0 0 0 0 0 0 0
0 0 0 0 0 0 0 0 0 0 0 0 0 0 0 0 0 0 0 0 0 0 0 0 0 0 0 0 0 0 0 1 1 0 0 0 0 0 0 0 0 0 0 0 0
0 0 0 0 0 0 0 0 0 0 0 0 0 0 0 0 0 0 0 0 0 0 0 0 0 0 0 0 2 1 0 0 0 0 1 0 0 0 0 0 0 0 0 0 0
0 0 0 0 0 0 0 0 0 0 0 0 0 0 0 0 0 0 0 0 0 0 0 0 0 0 0 0 0 1 3 0 0 1 0 0 0 0 0 0 0 0 0 0 0
0 0 0 0 0 0 0 0 0 0 0 0 0 0 0 0 0 0 0 0 0 0 0 0 0 0 0 0 0 0 0 0 0 0 0 0 0 0 0 0 9 5 0 0 0
0 0 0 0 0 0 0 0 0 0 0 0 0 0 0 0 0 0 0 0 0 0 0 0 0 0 0 0 0 0 0 1 2 0 0 0 0 0 0 0 0 0 0 0 0
0 0 0 0 0 0 0 0 0 0 0 0 0 0 0 0 0 0 0 0 0 0 0 0 0 0 0 0 0 0 0 0 0 0 0 0 0 0 0 0 0 0 0 0 0
0 0 0 0 0 0 0 0 0 0 0 0 0 0 0 0 0 0 0 0 0 0 0 0 3 0 0 0 0 0 0 0 0 0 0 0 0 4 1 1 2 0 0 1 0
0 0 0 0 0 0 0 0 0 0 0 0 0 0 0 0 0 0 0 0 0 0 0 0 0 0 0 0 0 0 12 1 0 0 0 0 0 0 0 2 3 3 0 0 1
0 0 0 0 0 0 0 0 0 0 0 0 0 0 0 0 0 0 0 0 0 0 0 1 0 0 0 0 0 0 0 1 1 1 0 0 0 0 1 1 1 2 1 2 1
0 0 0 0 0 0 0 0 0 0 0 0 0 0 0 0 0 0 0 0 0 0 0 0 1 0 0 0 0 1 0 0 1 0 0 0 0 0 0 0 0 0 1 1 1
0 0 0 0 0 0 0 0 0 0 0 0 0 0 0 0 0 0 0 0 0 0 1 0 0 0 0 0 0 1 0 0 0 0 0 0 0 0 0 1 0 0 1 0 1
0 0 0 0 0 0 0 0 0 0 0 0 0 0 0 0 0 0 0 0 0 0 0 0 1 0 0 0 0 1 0 0 0 1 0 0 0 0 1 0 1 0 1 0 1
0 0 0 0 0 0 0 0 0 0 0 0 0 0 0 0 0 0 0 0 0 0 0 0 0 0 0 0 0 0 0 0 0 0 0 0 1 2 2 0 1 0 0 0 0
CIN
-0 -0 -0 -0 -0 -0 -0 -0 -0 -0 -0 -0 -0 -0 -0 -0 -0 -0 -0 -0 -0 -0 -0 -0 -0 -0 -0 -0 -0 -0 -0 -0 -0 -0 -0 -0 -0 -16 -84 -72 -19 -33 -54 -58 -279
-0 -0 -0 -0 -0 -0 -0 -0 -0 -0 -0 -0 -0 -0 -0 -0 -0 -0 -0 -0 -0 -0 -0 -0 -0 -0 -0 -0 -0 -0 -0 -0 -0 -0 -0 -0 -0 -0 -5 -0 -6 -23 -126 -0 -296
-0 -0 -0 -0 -0 -0 -0 -0 -0 -0 -0 -0 -0 -0 -0 -0 -0 -0 -0 -0 -0 -0 -0 -0 -0 -0 -0 -0 -0 -0 -0 -0 -0 -0 -5 -4 -2 -5 -6 -0 -0 -15 -47 -177 -0
-0 -0 -0 -0 -0 -0 -0 -0 -0 -0 -0 -0 -0 -0 -0 -0 -0 -0 -0 -0 -0 -0 -0 -0 -0 -0 -0 -0 -0 -0 -0 -0 -0 -0 -0 -18 -19 -10 -4 -0 -0 -17 -26 -111 -241
-0 -0 -0 -0 -0 -0 -0 -0 -0 -0 -0 -0 -0 -0 -0 -0 -0 -0 -0 -0 -0 -0 -0 -0 -0 -0 -0 -0 -0 -0 -0 -0 -0 -3 -0 -0 -27 -15 -0 -0 -0 -0 -0 -47 -164
-0 -0 -0 -0 -0 -0 -0 -0 -0 -0 -0 -0 -0 -0 -0 -0 -0 -0 -0 -0 -0 -0 -0 -0 -0 -0 -0 -0 -0 -0 -0 -0 -0 -0 -16 -0 -0 -0 -0 -0 -0 -0 -0 -34 -77
-0 -0 -0 -0 -0 -0 -0 -0 -0 -0 -0 -0 -0 -0 -0 -0 -0 -0 -0 -0 -0 -0 -0 -0 -0 -0 -0 -0 -0 -0 -0 -0 -0 -0 -0 -0 -0 -0 -0 -0 -0 -0 -0 -0 -50
-0 -0 -0 -0 -0 -0 -0 -0 -0 -0 -0 -0 -0 -0 -0 -0 -0 -0 -0 -0 -0 -0 -0 -0 -0 -0 -0 -0 -0 -0 -0 -0 -0 -0 -0 -0 -0 -0 -0 -0 -0 -0 -0 -0 -0
-0 -0 -0 -0 -0 -0 -0 -0 -0 -0 -0 -0 -0 -0 -0 -0 -0 -0 -0 -0 -0 -0 -0 -0 -0 -0 -0 -0 -0 -0 -0 -0 -0 -0 -0 -0 -0 -0 -0 -0 -0 -2 -0 -0 -0
-0 -0 -0 -0 -0 -0 -0 -0 -0 -0 -0 -0 -0 -0 -0 -0 -0 -0 -0 -0 -0 -0 -0 -0 -0 -0 -0 -0 -0 -0 -0 -0 -0 -0 -0 -0 -0 -0 -0 -0 -0 -0 -4 -2 -0
-0 -0 -0 -0 -0 -0 -0 -0 -0 -0 -0 -0 -0 -0 -0 -0 -0 -0 -0 -0 -0 -0 -0 -0 -0 -0 -0 -0 -0 -0 -0 -0 -0 -0 -0 -0 -0 -0 -0 -0 -0 -0 -0 -18 -5
-0 -0 -0 -0 -0 -0 -0 -0 -0 -0 -0 -0 -0 -0 -0 -0 -0 -0 -0 -0 -0 -0 -0 -0 -0 -0 -0 -0 -0 -0 -0 -0 -0 -0 -0 -0 -0 -0 -0 -0 -0 -0 -0 -0 -64
-0 -0 -0 -0 -0 -0 -0 -0 -0 -0 -0 -0 -0 -0 -0 -0 -0 -0 -0 -0 -0 -0 -0 -0 -0 -0 -0 -0 -0 -0 -0 -0 -0 -0 -0 -0 -0 -0 -0 -0 -0 -0 -0 -0 -0
-0 -0 -0 -0 -0 -0 -0 -0 -0 -0 -0 -0 -0 -0 -0 -0 -0 -0 -0 -0 -0 -0 -0 -0 -0 -0 -0 -0 -0 -0 -0 -0 -0 -0 -0 -0 -0 -0 -0 -0 -0 -0 -0 -0 -0
-0 -0 -0 -0 -0 -0 -0 -0 -0 -0 -0 -0 -0 -0 -0 -0 -0 -0 -0 -0 -0 -0 -0 -0 -0 -0 -0 -0 -0 -0 -0 -1 -2 -0 -0 -0 -0 -0 -0 -0 -0 -0 -0 -0 -0
-0 -0 -0 -0 -0 -0 -0 -0 -0 -0 -0 -0 -0 -0 -0 -0 -0 -0 -0 -0 -0 -0 -0 -0 -0 -0 -0 -8 -12 -10 -1 -0 -0 -1 -1 -0 -0 -0 -0 -0 -0 -0 -0 -0 -0
-0 -0 -0 -0 -0 -0 -0 -0 -0 -0 -0 -0 -0 -0 -0 -0 -0 -0 -0 -0 -0 -0 -0 -0 -0 -0 -1 -11 -0 -5 -1 -0 -0 -0 -0 -0 -1 -0 -0 -0 -0 -0 -0 -0 -0
-0 -0 -0 -0 -0 -0 -0 -0 -0 -0 -0 -0 -0 -0 -0 -0 -0 -0 -0 -0 -0 -0 -0 -0 -0 -0 -0 -0 -0 -0 -0 -0 -4 -0 -0 -0 -0 -0 -0 -0 -25 -24 -0 -0 -8
-0 -0 -0 -0 -0 -0 -0 -0 -0 -0 -0 -0 -0 -0 -0 -0 -0 -0 -0 -0 -1 -0 -0 -0 -0 -0 -0 -11 -3 -0 -0 -1 -2 -0 -0 -0 -0 -0 -0 -0 -0 -0 -0 -0 -0
-0 -0 -0 -0 -0 -0 -0 -0 -0 -0 -0 -0 -0 -0 -0 -0 -0 -0 -0 -0 -0 -0 -0 -0 -0 -0 -0 -0 -0 -0 -0 -0 -0 -0 -0 -0 -0 -0 -0 -0 -0 -0 -0 -0 -0
-0 -0 -0 -0 -0 -0 -0 -0 -0 -0 -0 -0 -0 -0 -0 -0 -0 -0 -0 -0 -0 -0 -0 -0 -0 -0 -0 -0 -0 -0 -0 -0 -0 -0 -0 -0 -0 -0 -0 -0 -0 -0 -0 -0 -0
-0 -0 -0 -0 -0 -0 -0 -0 -0 -0 -0 -0 -0 -0 -0 -0 -0 -0 -0 -0 -0 -0 -0 -0 -0 -0 -0 -0 -0 -0 -1 -0 -0 -0 -0 -0 -0 -0 -0 -0 -0 -0 -0 -0 -0
-0 -0 -0 -0 -0 -0 -0 -0 -0 -0 -0 -0 -0 -0 -0 -0 -0 -0 -0 -0 -1 -0 -0 -0 -0 -0 -0 -0 -0 -0 -0 -0 -0 -0 -0 -0 -0 -0 -0 -0 -0 -0 -0 -0 -0
-0 -0 -0 -0 -0 -0 -0 -0 -0 -0 -0 -0 -0 -0 -1 -0 -0 -0 -0 -0 -0 -0 -2 -1 -0 -0 -0 -0 -0 -0 -0 -0 -0 -0 -0 -0 -0 -0 -0 -0 -0 -0 -0 -0 -0
-0 -0 -0 -0 -0 -0 -0 -0 -0 -0 -0 -0 -0 -0 -0 -0 -0 -0 -0 -0 -0 -0 -0 -0 -0 -0 -0 -0 -0 -0 -0 -0 -0 -0 -0 -0 -0 -0 -0 -0 -0 -0 -0 -0 -0
-0 -0 -0 -0 -0 -0 -0 -0 -0 -0 -0 -0 -0 -0 -0 -0 -0 -0 -0 -0 -0 -0 -0 -0 -0 -0 -0 -0 -0 -0 -0 -0 -0 -0 -0 -0 -0 -0 -0 -0 -0 -0 -0 -0 -0
-0 -0 -0 -0 -0 -0 -0 -0 -0 -0 -0 -0 -0 -0 -0 -0 -0 -0 -0 -0 -0 -0 -0 -0 -0 -0 -0 -0 -0 -0 -0 -0 -0 -0 -0 -0 -0 -0 -0 -0 -0 -0 -0 -0 -0
Wind_Speed
22 23 25 26 27 27 28 29 29 30 31 31 30 30 29 25 23 24 24 26 28 32 32 30 27 20 18 22 21 23 29 33 30 32 34 29 32 19 20 28 24 23 22 18 5
22 23 25 26 27 28 29 30 30 31 31 31 30 30 29 26 18 26 26 29 31 31 30 28 27 27 24 21 20 21 29 33 30 29 30 29 32 26 25 26 29 22 20 15 10
22 24 25 26 27 28 29 29 30 30 29 30 30 30 29 22 16 25 29 31 31 31 28 28 27 25 23 22 22 21 31 34 36 32 35 35 31 29 27 27 26 26 20 16 15
24 25 25 26 27 25 25 24 23 24 25 27 27 28 23 19 20 26 31 32 33 31 28 28 26 24 24 25 21 35 35 34 36 38 40 39 36 34 31 30 26 24 26 14 18
25 26 26 23 20 20 19 19 20 30 32 32 31 29 24 23 25 28 31 32 31 30 29 29 26 27 26 28 32 36 34 35 39 36 39 41 41 40 41 36 28 25 23 15 22
24 21 20 19 18 17 17 22 26 30 31 29 25 26 22 26 26 30 31 31 30 29 29 27 27 28 28 30 31 34 38 40 38 39 39 41 47 43 40 38 40 35 25 19 21
17 18 17 16 17 25 28 17 2 11 24 23 23 21 25 28 27 28 31 31 28 29 30 27 28 27 31 31 30 35 41 42 40 38 36 38 55 33 41 42 44 40 38 27 24
13 12 9 10 24 21 16 18 22 23 25 23 20 21 23 25 29 31 32 31 32 27 26 27 27 28 26 28 32 36 36 39 32 32 35 31 60 31 30 35 43 41 35 24 27
18 19 19 17 21 24 11 11 18 19 21 21 20 22 26 25 33 31 32 34 34 28 27 24 25 26 28 31 35 29 39 41 39 31 33 30 53 36 37 42 41 33 33 30 23
21 18 19 20 24 26 17 18 18 19 18 17 21 21 27 33 30 29 32 32 31 32 29 29 28 30 30 33 42 43 46 45 46 39 44 46 52 45 38 38 44 43 36 32 31
20 20 19 20 23 29 25 19 24 23 27 25 25 24 28 31 23 28 34 33 32 33 34 31 32 34 34 34 37 40 42 45 44 42 48 52 56 50 48 51 47 45 42 38 33
18 18 19 20 23 28 22 24 23 21 25 21 22 22 25 29 26 32 36 34 34 37 35 35 32 33 35 34 36 38 43 46 44 38 42 49 60 55 51 53 51 48 46 43 40
16 16 18 19 21 22 25 24 21 20 23 22 22 24 27 28 26 30 34 33 32 34 37 36 32 33 34 37 39 38 42 44 47 44 43 49 63 56 50 51 52 53 48 46 43
15 15 17 20 20 20 22 22 20 18 23 25 25 23 25 25 23 27 30 29 29 34 37 31 28 33 36 37 35 41 34 39 41 43 44 36 58 53 51 44 42 50 53 49 47
13 15 17 19 19 20 21 21 20 18 28 27 24 20 26 25 26 26 27 27 30 33 30 33 35 37 36 31 31 33 35 38 39 42 44 42 46 45 34 42 43 42 43 48 48
12 14 16 17 20 20 20 20 19 24 26 27 24 29 31 24 29 26 30 22 23 31 28 29 29 25 25 30 32 34 36 39 36 35 40 38 36 43 34 36 36 42 38 40 41
11 14 17 18 18 20 20 20 24 26 25 27 28 29 28 29 28 32 33 33 35 41 43 40 35 24 23 34 35 29 38 35 30 29 36 32 34 40 50 45 42 41 40 40 36
10 14 17 18 19 20 20 22 26 24 25 24 26 28 28 31 28 34 32 32 31 36 39 43 44 30 31 35 35 39 30 30 34 35 45 39 31 32 31 35 32 29 33 36 36
9 14 16 19 19 19 21 24 23 24 22 27 27 28 28 27 29 31 31 30 31 34 39 39 32 34 29 22 28 29 25 26 31 35 33 25 31 34 27 34 38 38 39 38 37
11 13 16 19 19 18 21 21 20 20 20 22 29 27 30 29 30 32 29 27 30 27 32 29 33 22 23 35 21 20 25 26 25 29 32 31 37 33 41 44 43 44 43 42 41
12 15 18 17 17 19 20 18 18 17 19 23 26 26 26 28 27 28 26 25 25 28 30 28 20 23 23 20 25 21 22 23 22 24 28 32 33 33 39 42 45 47 46 44 43
12 16 18 15 17 18 18 17 17 17 16 20 22 21 24 26 25 24 25 24 28 29 30 25 21 21 8 21 19 18 17 20 20 28 30 36 36 28 39 39 42 46 44 43 39
11 15 16 16 16 15 17 17 17 17 17 20 22 19 20 24 26 21 22 20 23 28 26 26 19 25 19 16 18 22 24 18 20 12 16 21 22 38 42 47 47 44 41 37 33
14 16 17 16 15 14 15 17 18 14 17 18 20 17 20 22 19 22 24 20 19 20 17 19 14 2 17 24 27 23 22 22 20 12 18 13 25 29 33 45 48 44 36 31 27
15 16 15 14 13 12 13 15 17 18 15 16 21 15 19 23 21 21 21 18 19 18 16 25 4 22 26 27 25 22 20 21 21 22 12 20 20 11 31 22 28 25 26 21 19
16 14 15 15 15 10 12 14 14 17 16 19 17 18 13 17 19 24 22 21 18 17 20 22 5 26 26 22 21 20 18 21 15 17 15 17 9 24 22 20 28 18 8 15 13
16 16 14 14 12 10 13 12 13 14 14 16 16 16 16 16 15 13 13 12 8 10 15 22 21 24 18 24 20 15 17 20 20 29 18 14 13 15 25 32 34 20 12 7 7
Wind_Direction
8 8 360 353 351 349 346 342 340 344 342 332 328 324 319 306 329 352 343 334 325 306 299 309 308 317 311 296 292 292 278 275 278 277 278 285 278 288 293 278 281 279 285 293 296
3 -0 352 348 346 346 347 346 344 339 337 332 326 323 318 312 9 356 344 328 323 323 317 317 313 307 304 299 294 279 277 278 282 284 284 287 281 283 284 282 275 279 282 285 277
357 350 345 344 345 346 344 341 340 331 322 322 323 317 320 355 17 353 336 329 325 324 327 319 316 311 302 297 288 285 278 281 277 283 283 284 284 286 278 279 280 276 275 269 270
341 341 347 343 324 314 310 308 306 307 309 313 310 314 303 30 9 354 341 332 326 331 331 327 324 317 307 297 296 280 282 283 282 278 276 278 282 276 279 277 282 290 283 258 264
326 323 323 298 286 288 287 290 293 332 344 345 334 325 5 16 5 351 345 340 338 336 334 329 325 318 306 302 296 285 286 285 282 282 278 278 273 274 272 277 280 282 284 267 263
308 289 285 279 279 276 281 294 307 321 333 358 15 12 27 9 2 351 347 344 342 341 336 334 324 317 308 302 296 294 289 285 285 284 281 277 271 274 272 274 270 275 278 272 266
267 271 268 270 274 312 331 35 13 312 20 22 21 24 21 12 7 1 354 349 349 338 332 332 327 320 310 304 303 297 291 287 283 283 283 282 267 266 274 272 269 271 272 271 265
241 237 227 67 354 20 37 29 21 20 19 25 35 29 16 18 8 2 357 354 347 346 341 335 331 318 313 310 304 297 293 288 294 286 279 277 260 282 274 271 269 271 272 265 267
277 310 20 31 18 8 49 45 33 32 27 31 32 23 10 15 0 3 357 351 346 348 344 344 338 324 318 307 302 299 288 289 290 293 286 269 273 279 277 273 273 269 266 267 260
355 17 20 21 3 320 34 35 36 34 36 36 29 16 11 359 359 1 358 353 354 348 346 340 334 320 314 306 292 292 289 289 287 289 286 280 276 279 277 275 271 271 271 265 263
353 3 11 18 7 337 14 31 16 15 18 17 14 13 4 3 13 4 358 354 355 348 341 338 329 318 316 313 305 298 294 290 291 291 283 279 277 277 277 271 271 272 271 270 266
356 4 9 13 8 349 24 18 20 19 7 24 21 19 13 6 2 359 356 355 353 347 345 340 328 324 320 314 308 301 295 292 294 296 289 284 275 277 275 271 269 269 268 267 267
358 8 11 15 16 21 17 20 28 25 8 12 16 11 10 8 5 0 358 356 353 348 345 338 333 334 325 314 308 304 298 297 293 296 292 288 277 277 277 271 268 266 266 266 262
3 8 7 7 15 17 17 20 27 32 7 5 9 15 13 11 8 7 3 0 357 347 344 342 344 335 327 318 314 302 309 303 299 296 288 297 278 280 283 278 272 265 263 262 260
4 3 3 9 10 12 15 19 24 29 354 4 10 20 8 14 5 7 6 4 354 349 350 345 336 329 326 325 324 314 312 306 301 293 293 290 283 282 291 282 280 271 269 262 259
7 3 4 10 8 10 12 19 24 4 357 0 9 5 6 11 5 4 1 10 359 352 352 341 341 335 333 330 323 315 313 308 301 295 288 294 284 286 290 289 286 273 276 267 262
7 359 358 358 6 6 11 16 2 1 4 360 1 5 5 4 6 3 0 360 358 348 344 347 348 349 343 326 327 327 315 309 305 302 293 303 293 283 287 287 284 282 280 278 271
6 355 354 358 359 5 11 6 356 1 1 6 5 4 5 7 6 1 3 1 6 360 348 346 340 344 340 327 323 316 315 307 302 301 295 302 295 297 301 299 301 292 291 287 277
9 350 347 344 356 3 4 357 359 1 8 1 3 2 3 7 4 3 3 4 4 6 357 350 349 341 340 346 340 329 320 317 306 303 301 304 309 306 319 312 298 294 291 288 280
344 343 340 342 354 2 357 356 2 10 12 11 359 5 359 1 2 2 5 8 5 9 5 359 349 0 354 325 356 351 328 319 319 313 306 307 304 308 314 308 301 294 290 286 282
332 332 334 341 353 353 352 360 5 14 16 8 2 1 2 1 2 1 4 7 12 5 3 358 4 355 359 1 307 282 298 304 297 325 314 313 314 325 321 318 308 298 289 286 281
321 322 330 338 344 351 354 2 10 11 16 9 8 6 4 3 2 3 3 5 7 4 1 7 5 359 273 263 246 258 254 275 272 300 280 300 310 328 311 305 300 302 293 286 283
318 321 333 331 341 343 351 356 2 6 8 9 5 8 12 4 1 3 5 11 7 7 8 7 16 0 290 275 296 278 277 265 270 253 252 275 276 309 315 317 314 301 293 283 281
307 316 319 321 335 347 352 350 353 8 6 7 5 9 6 3 5 3 2 12 15 3 15 18 21 198 242 262 275 269 271 278 274 253 272 264 286 297 305 314 320 310 295 283 278
295 310 319 327 325 335 345 354 354 356 6 8 4 4 6 2 4 6 7 8 9 19 27 358 15 264 265 265 261 253 261 280 277 288 274 286 289 318 311 323 314 302 299 290 285
283 302 308 322 329 335 335 344 345 354 2 -0 360 8 7 2 4 360 2 5 12 25 18 2 228 286 285 290 286 264 268 295 278 287 297 299 309 307 312 19 324 317 274 302 283
281 290 306 321 324 329 333 341 350 360 1 3 6 3 359 357 360 354 354 357 357 9 22 355 279 295 270 298 281 272 286 297 296 331 306 312 313 325 326 349 344 332 320 224 231